User: anonymous   Login
Location: Lewisville
(33.0462°N, 96.9942°W)
Time: 08:02:37
(UTC-06:00)
Language:

Envisat - Orbit

View from above orbital plane
View from above orbital plane
View from above satellite
View from above satellite

Ground track
Ground track

The orbit data is extracted from the following two-line orbital elements,

1 27386U 02009A   21342.95100375  .00000038  00000-0  26053-4 0  9990
2 27386  98.1642 328.2268 0001310  87.7457 325.2699 14.38059154 36153
Epoch (UTC): 08 December 2021 22:49:26
Eccentricity: 0.0001310
inclination: 98.1642°
perigee height: 764 km
apogee height: 766 km
right ascension of ascending node: 328.2268°
argument of perigee: 87.7457°
revolutions per day: 14.38059154
mean anomaly at epoch: 325.2699°
orbit number at epoch: 3615

The dashed part of the orbit path shows where the satellite is in the earth's shadow,  

DLR